YAOGAN-42 02

导读

YAOGAN-42 02(遥感四十二号02星)是中国研制发射的遥感卫星,于北京时间2024年4月20日发射升空,卫星顺利进入预定预定轨道,发射任务取得圆满成功。 作为中国遥感卫星系列的组成部分,该卫星主要承担对地遥感观测任务,可服务于国土资源勘查、防灾减灾、生态监测、气象水文等多个国民经济领域,将进一步提升中国空间遥感应用能力,为相关领域发展提供数据支撑。

Basic Information
目录编号:
59557
目录名称:
YAOGAN-42 02
国际标识:
2024-075A
轨道中心:
EARTH
卫星名称:
YAOGAN-42 02
卫星全名:
YAOGAN-42 02
卫星状态:
在轨 (已飞行868 天)
发射日期:
2024-04-20 UTC
国别 :
中国 (CN)
星等 :
--
Orbit Information
数据来源 国际轨道数据
星历时间: 2026-09-05T09:55:57+0800
6小时前
查看轨道信息
半长轴: 6874.761km
偏心率: 0.0004833
轨道倾角: 35.000°
近地点辐角 186.304°
升交点赤经 127.155°
平近点角 173.761°
近地点: 493.301km
远地点: 499.947km
周期: 94.547分钟
每日圈数: 15.23058
Detailed Information
使用方式:
暂无
2D Orbit Map
3D Orbit Map
Orbit Altitude Analysis Chart
Orbit Inclination Analysis Chart
Orbit Comprehensive Analysis Chart
View Comprehensive Chart
Conjunction Data List
Event ID Objects TCA Miss Dist (km) Collision Risk Probability Collision Risk Index (CRI) Action
CDM_260907-211205-955706-847321
2026-09-07T
21:12:00+0000
1.151 km
极远距离
1.418489E-5 中风险 0.58
CDM_260901-213605-955706-263221
SIGI (62632)
2026-09-01T
21:36:51+0000
2.181 km
极远距离
2.235238E-6 低风险 0.42